Time,TemperatureF,DewpointF,PressureIn,WindDirection,WindDirectionDegrees,WindSpeedMPH,WindSpeedGustMPH,Humidity,HourlyPrecipIn,Conditions,Clouds,dailyrainin,SoftwareType,DateUTC
2013-02-26 00:00:00,28.8,14.6,30.03,WNW,292,0.0,0.0,55,0.00,,---,0.00,VWS V14.01,2013-02-26 07:00:00,
2013-02-26 00:05:00,28.8,14.6,30.03,WNW,298,0.0,0.0,55,0.00,,---,0.00,VWS V14.01,2013-02-26 07:05:00,
2013-02-26 00:10:00,29.1,14.6,30.03,NW,308,0.0,4.0,54,0.00,,---,0.00,VWS V14.01,2013-02-26 07:10:00,
2013-02-26 00:15:00,29.1,14.6,30.03,SSE,168,2.2,3.1,54,0.00,,---,0.00,VWS V14.01,2013-02-26 07:15:00,
2013-02-26 00:20:00,29.3,14.7,30.03,South,187,0.0,3.1,54,0.00,,---,0.00,VWS V14.01,2013-02-26 07:20:00,
2013-02-26 00:25:00,29.1,14.6,30.03,South,172,0.0,3.1,54,0.00,,---,0.00,VWS V14.01,2013-02-26 07:25:00,
2013-02-26 00:30:00,28.8,14.2,30.03,South,172,0.0,0.0,54,0.00,,---,0.00,VWS V14.01,2013-02-26 07:30:00,
2013-02-26 00:35:00,28.8,14.2,30.03,South,179,3.6,4.0,54,0.00,,---,0.00,VWS V14.01,2013-02-26 07:35:00,
2013-02-26 00:40:00,29.1,15.0,30.06,SSW,192,5.4,5.8,55,0.00,,---,0.00,VWS V14.01,2013-02-26 07:40:00,
2013-02-26 00:45:00,29.3,15.1,30.06,South,191,5.4,5.4,55,0.00,,---,0.00,VWS V14.01,2013-02-26 07:45:00,
2013-02-26 00:50:00,29.3,15.6,30.06,SSE,158,2.7,8.1,56,0.00,,---,0.00,VWS V14.01,2013-02-26 07:50:00,
2013-02-26 00:55:00,29.1,15.4,30.06,South,177,4.0,8.1,56,0.00,,---,0.00,VWS V14.01,2013-02-26 07:55:00,
2013-02-26 01:00:00,28.8,15.1,30.06,South,174,5.8,7.6,56,0.00,,---,0.00,VWS V14.01,2013-02-26 08:00:00,
2013-02-26 01:05:00,28.8,15.9,30.06,SSW,202,4.0,10.1,58,0.00,,---,0.00,VWS V14.01,2013-02-26 08:05:00,
2013-02-26 01:10:00,28.8,16.2,30.06,South,184,7.6,10.1,59,0.00,,---,0.00,VWS V14.01,2013-02-26 08:10:00,
2013-02-26 01:15:00,28.9,16.4,30.06,South,182,4.0,5.8,59,0.00,,---,0.00,VWS V14.01,2013-02-26 08:15:00,
2013-02-26 01:20:00,28.9,16.0,30.06,WSW,239,3.6,6.3,58,0.00,,---,0.00,VWS V14.01,2013-02-26 08:20:00,
2013-02-26 01:25:00,28.8,15.9,30.06,SSW,195,2.7,6.3,58,0.00,,---,0.00,VWS V14.01,2013-02-26 08:25:00,
2013-02-26 01:30:00,28.6,15.7,30.06,SSE,160,0.0,3.1,58,0.00,,---,0.00,VWS V14.01,2013-02-26 08:30:00,
2013-02-26 01:35:00,28.6,15.7,30.06,SSE,156,0.0,4.0,58,0.00,,---,0.00,VWS V14.01,2013-02-26 08:35:00,
2013-02-26 01:40:00,28.4,15.5,30.06,SE,141,3.6,5.4,58,0.00,,---,0.00,VWS V14.01,2013-02-26 08:40:00,
2013-02-26 01:45:00,28.4,15.9,30.06,East,97,5.4,5.4,59,0.00,,---,0.00,VWS V14.01,2013-02-26 08:45:00,
2013-02-26 01:50:00,28.6,15.7,30.06,ESE,117,5.8,6.3,58,0.00,,---,0.00,VWS V14.01,2013-02-26 08:50:00,
2013-02-26 01:55:00,28.6,15.7,30.06,ESE,108,4.0,7.6,58,0.00,,---,0.00,VWS V14.01,2013-02-26 08:55:00,
2013-02-26 02:00:00,28.4,15.5,30.06,ESE,119,4.0,4.9,58,0.00,,---,0.00,VWS V14.01,2013-02-26 09:00:00,
2013-02-26 02:05:00,28.2,15.4,30.06,SSE,149,5.4,9.6,58,0.00,,---,0.00,VWS V14.01,2013-02-26 09:05:00,
2013-02-26 02:10:00,28.4,15.9,30.06,SE,135,3.6,9.6,59,0.00,,---,0.00,VWS V14.01,2013-02-26 09:10:00,
2013-02-26 02:15:00,28.4,15.5,30.06,SE,144,3.1,4.0,58,0.00,,---,0.00,VWS V14.01,2013-02-26 09:15:00,
2013-02-26 02:20:00,28.2,15.4,30.06,SE,141,8.3,8.3,58,0.00,,---,0.00,VWS V14.01,2013-02-26 09:20:00,
2013-02-26 02:25:00,28.4,15.5,30.06,SE,124,2.7,8.3,58,0.00,,---,0.00,VWS V14.01,2013-02-26 09:25:00,
2013-02-26 02:30:00,28.4,15.5,30.06,East,98,3.6,4.5,58,0.00,,---,0.00,VWS V14.01,2013-02-26 09:30:00,
2013-02-26 02:35:00,28.6,15.3,30.06,SSE,161,3.6,6.3,57,0.00,,---,0.00,VWS V14.01,2013-02-26 09:35:00,
2013-02-26 02:40:00,28.8,15.5,30.09,SE,130,6.3,10.5,57,0.00,,---,0.00,VWS V14.01,2013-02-26 09:40:00,
2013-02-26 02:45:00,28.9,15.6,30.09,SSE,160,0.0,0.0,57,0.00,,---,0.00,VWS V14.01,2013-02-26 09:45:00,
2013-02-26 02:50:00,28.6,14.9,30.09,East,91,3.6,4.9,56,0.00,,---,0.00,VWS V14.01,2013-02-26 09:50:00,
2013-02-26 02:55:00,28.8,14.6,30.06,SSE,148,8.7,8.7,55,0.00,,---,0.00,VWS V14.01,2013-02-26 09:55:00,
2013-02-26 03:00:00,28.9,14.8,30.06,SW,224,4.0,4.0,55,0.00,,---,0.00,VWS V14.01,2013-02-26 10:00:00,
2013-02-26 03:05:00,28.8,14.6,30.06,South,180,4.0,5.8,55,0.00,,---,0.00,VWS V14.01,2013-02-26 10:05:00,
2013-02-26 03:10:00,28.6,14.5,30.09,ESE,109,3.1,5.8,55,0.00,,---,0.00,VWS V14.01,2013-02-26 10:10:00,
2013-02-26 03:15:00,28.6,14.1,30.09,ESE,117,5.8,5.8,54,0.00,,---,0.00,VWS V14.01,2013-02-26 10:15:00,
2013-02-26 03:20:00,28.8,14.2,30.09,SE,136,4.0,8.3,54,0.00,,---,0.00,VWS V14.01,2013-02-26 10:20:00,
2013-02-26 03:25:00,28.9,14.0,30.09,SSW,208,3.1,8.3,53,0.00,,---,0.00,VWS V14.01,2013-02-26 10:25:00,
2013-02-26 03:30:00,28.9,14.0,30.09,SSW,210,5.4,6.3,53,0.00,,---,0.00,VWS V14.01,2013-02-26 10:30:00,
2013-02-26 03:35:00,28.9,13.5,30.09,South,188,2.7,6.3,52,0.00,,---,0.00,VWS V14.01,2013-02-26 10:35:00,
2013-02-26 03:40:00,28.6,13.2,30.09,SSE,151,2.7,6.3,52,0.00,,---,0.00,VWS V14.01,2013-02-26 10:40:00,
2013-02-26 03:45:00,28.0,13.1,30.09,SSE,154,0.0,0.0,53,0.00,,---,0.00,VWS V14.01,2013-02-26 10:45:00,
2013-02-26 03:50:00,27.9,13.0,30.09,SE,140,0.0,0.0,53,0.00,,---,0.00,VWS V14.01,2013-02-26 10:50:00,
2013-02-26 03:55:00,27.7,12.8,30.09,ESE,111,0.0,3.1,53,0.00,,---,0.00,VWS V14.01,2013-02-26 10:55:00,
2013-02-26 04:00:00,27.9,13.0,30.09,SE,145,0.0,0.0,53,0.00,,---,0.00,VWS V14.01,2013-02-26 11:00:00,
2013-02-26 04:05:00,28.0,13.1,30.09,SE,143,3.1,3.6,53,0.00,,---,0.00,VWS V14.01,2013-02-26 11:05:00,
2013-02-26 04:10:00,28.0,13.1,30.06,SE,136,0.0,3.6,53,0.00,,---,0.00,VWS V14.01,2013-02-26 11:10:00,
2013-02-26 04:15:00,28.4,13.0,30.06,South,172,4.0,4.0,52,0.00,,---,0.00,VWS V14.01,2013-02-26 11:15:00,
2013-02-26 04:20:00,28.6,13.2,30.06,South,183,4.0,4.9,52,0.00,,---,0.00,VWS V14.01,2013-02-26 11:20:00,
2013-02-26 04:25:00,28.8,12.9,30.09,SSW,193,2.2,5.4,51,0.00,,---,0.00,VWS V14.01,2013-02-26 11:25:00,
2013-02-26 04:30:00,28.6,12.8,30.09,SSW,209,0.0,0.0,51,0.00,,---,0.00,VWS V14.01,2013-02-26 11:30:00,
2013-02-26 04:35:00,28.2,12.4,30.09,South,171,0.0,0.0,51,0.00,,---,0.00,VWS V14.01,2013-02-26 11:35:00,
2013-02-26 04:40:00,27.9,12.1,30.09,SSW,197,4.0,4.9,51,0.00,,---,0.00,VWS V14.01,2013-02-26 11:40:00,
2013-02-26 04:45:00,28.0,12.3,30.09,WSW,242,2.7,2.7,51,0.00,,---,0.00,VWS V14.01,2013-02-26 11:45:00,
2013-02-26 04:50:00,27.9,12.1,30.09,SW,230,0.0,2.7,51,0.00,,---,0.00,VWS V14.01,2013-02-26 11:50:00,
2013-02-26 04:55:00,28.0,12.3,30.09,WSW,238,0.0,2.7,51,0.00,,---,0.00,VWS V14.01,2013-02-26 11:55:00,
2013-02-26 05:00:00,28.2,12.4,30.09,WSW,238,0.0,0.0,51,0.00,,---,0.00,VWS V14.01,2013-02-26 12:00:00,
2013-02-26 05:06:00,28.0,12.3,30.09,WSW,238,0.0,0.0,51,0.00,,---,0.00,VWS V14.01,2013-02-26 12:06:00,
2013-02-26 05:11:00,27.9,11.6,30.12,North,0,0.0,0.0,50,0.00,,---,0.00,VWS V14.01,2013-02-26 12:11:00,
2013-02-26 05:16:00,29.1,9.4,30.12,North,357,4.0,4.0,43,0.00,,---,0.00,VWS V14.01,2013-02-26 12:16:00,
2013-02-26 05:21:00,29.8,9.6,30.12,NE,54,0.0,5.8,42,0.00,,---,0.00,VWS V14.01,2013-02-26 12:21:00,
2013-02-26 05:26:00,29.8,9.6,30.12,NE,50,0.0,5.8,42,0.00,,---,0.00,VWS V14.01,2013-02-26 12:26:00,
2013-02-26 05:31:00,29.8,9.0,30.12,North,1,2.7,3.1,41,0.00,,---,0.00,VWS V14.01,2013-02-26 12:31:00,
2013-02-26 05:36:00,30.0,9.7,30.12,ESE,114,3.6,3.6,42,0.00,,---,0.00,VWS V14.01,2013-02-26 12:36:00,
2013-02-26 05:41:00,29.8,9.6,30.12,SE,127,4.0,4.9,42,0.00,,---,0.00,VWS V14.01,2013-02-26 12:41:00,
2013-02-26 05:46:00,30.0,9.2,30.12,East,84,5.8,5.8,41,0.00,,---,0.00,VWS V14.01,2013-02-26 12:46:00,
2013-02-26 05:51:00,30.7,8.7,30.12,WNW,284,0.0,6.3,39,0.00,,---,0.00,VWS V14.01,2013-02-26 12:51:00,
2013-02-26 05:56:00,30.9,9.4,30.12,East,85,2.7,6.3,40,0.00,,---,0.00,VWS V14.01,2013-02-26 12:56:00,
2013-02-26 06:01:00,30.2,8.8,30.12,ENE,78,0.0,0.0,40,0.00,,---,0.00,VWS V14.01,2013-02-26 13:01:00,
2013-02-26 06:06:00,30.0,9.2,30.12,ENE,77,2.7,3.1,41,0.00,,---,0.00,VWS V14.01,2013-02-26 13:06:00,
2013-02-26 06:11:00,29.8,9.0,30.12,East,79,5.8,6.3,41,0.00,,---,0.00,VWS V14.01,2013-02-26 13:11:00,
2013-02-26 06:16:00,29.8,8.5,30.12,ENE,59,0.0,0.0,40,0.00,,---,0.00,VWS V14.01,2013-02-26 13:16:00,
2013-02-26 06:21:00,29.8,8.5,30.12,East,80,2.7,5.8,40,0.00,,---,0.00,VWS V14.01,2013-02-26 13:21:00,
2013-02-26 06:26:00,29.7,8.3,30.12,NE,50,3.1,5.8,40,0.00,,---,0.00,VWS V14.01,2013-02-26 13:26:00,
2013-02-26 06:31:00,29.8,8.5,30.12,ENE,57,4.0,4.0,40,0.00,,---,0.00,VWS V14.01,2013-02-26 13:31:00,
2013-02-26 06:36:00,29.8,8.5,30.12,ENE,64,2.7,5.8,40,0.00,,---,0.00,VWS V14.01,2013-02-26 13:36:00,
2013-02-26 06:41:00,29.8,7.9,30.12,North,9,2.7,5.8,39,0.00,,---,0.00,VWS V14.01,2013-02-26 13:41:00,
2013-02-26 06:46:00,30.2,8.2,30.12,NE,34,2.7,4.0,39,0.00,,---,0.00,VWS V14.01,2013-02-26 13:46:00,
2013-02-26 06:51:00,30.4,7.8,30.12,North,11,0.0,5.4,38,0.00,,---,0.00,VWS V14.01,2013-02-26 13:51:00,
2013-02-26 06:56:00,30.9,7.7,30.15,NW,310,3.1,7.6,37,0.00,,---,0.00,VWS V14.01,2013-02-26 13:56:00,
2013-02-26 07:01:00,30.7,7.6,30.15,NW,310,0.0,0.0,37,0.00,,---,0.00,VWS V14.01,2013-02-26 14:01:00,
2013-02-26 07:06:00,30.6,6.8,30.15,North,353,2.2,3.1,36,0.00,,---,0.00,VWS V14.01,2013-02-26 14:06:00,
2013-02-26 07:11:00,30.6,6.8,30.12,North,11,4.0,5.4,36,0.00,,---,0.00,VWS V14.01,2013-02-26 14:11:00,
2013-02-26 07:16:00,30.6,7.4,30.12,ENE,60,2.2,4.0,37,0.00,,---,0.00,VWS V14.01,2013-02-26 14:16:00,
2013-02-26 07:21:00,30.2,7.7,30.12,SE,138,0.0,4.0,38,0.00,,---,0.00,VWS V14.01,2013-02-26 14:21:00,
2013-02-26 07:26:00,30.0,7.5,30.15,ESE,122,0.0,4.0,38,0.00,,---,0.00,VWS V14.01,2013-02-26 14:26:00,
2013-02-26 07:31:00,29.5,7.0,30.15,ENE,77,5.4,5.4,38,0.00,,---,0.00,VWS V14.01,2013-02-26 14:31:00,
2013-02-26 07:36:00,29.7,7.8,30.15,ESE,114,3.1,5.4,39,0.00,,---,0.00,VWS V14.01,2013-02-26 14:36:00,
2013-02-26 07:41:00,30.0,8.1,30.15,NE,49,2.2,5.4,39,0.00,,---,0.00,VWS V14.01,2013-02-26 14:41:00,
2013-02-26 07:46:00,30.0,8.1,30.15,East,98,0.0,2.2,39,0.00,,---,0.00,VWS V14.01,2013-02-26 14:46:00,
2013-02-26 07:51:00,29.8,7.9,30.15,WSW,258,0.0,2.2,39,0.00,,---,0.00,VWS V14.01,2013-02-26 14:51:00,
2013-02-26 07:56:00,29.8,7.9,30.15,SE,145,0.0,3.6,39,0.00,,---,0.00,VWS V14.01,2013-02-26 14:56:00,
2013-02-26 08:01:00,29.8,7.9,30.15,SE,145,0.0,0.0,39,0.00,,---,0.00,VWS V14.01,2013-02-26 15:01:00,
2013-02-26 08:06:00,29.8,7.9,30.15,SSE,160,0.0,0.0,39,0.00,,---,0.00,VWS V14.01,2013-02-26 15:06:00,
2013-02-26 08:11:00,29.7,7.8,30.15,SSE,153,0.0,0.0,39,0.00,,---,0.00,VWS V14.01,2013-02-26 15:11:00,
2013-02-26 08:16:00,29.7,8.3,30.15,SE,138,2.7,3.6,40,0.00,,---,0.00,VWS V14.01,2013-02-26 15:16:00,
2013-02-26 08:21:00,29.8,8.5,30.15,SE,138,0.0,3.6,40,0.00,,---,0.00,VWS V14.01,2013-02-26 15:21:00,
2013-02-26 08:26:00,30.0,8.6,30.18,ESE,119,0.0,3.6,40,0.00,,---,0.00,VWS V14.01,2013-02-26 15:26:00,
2013-02-26 08:31:00,30.2,8.8,30.18,SSW,203,3.1,4.0,40,0.00,,---,0.00,VWS V14.01,2013-02-26 15:31:00,
2013-02-26 08:36:00,30.4,9.0,30.18,SSW,205,2.2,4.9,40,0.00,,---,0.00,VWS V14.01,2013-02-26 15:36:00,
2013-02-26 08:41:00,30.2,8.8,30.18,SSE,158,0.0,4.9,40,0.00,,---,0.00,VWS V14.01,2013-02-26 15:41:00,
2013-02-26 08:46:00,29.8,8.5,30.18,SSE,158,0.0,0.0,40,0.00,,---,0.00,VWS V14.01,2013-02-26 15:46:00,
2013-02-26 08:51:00,29.5,8.1,30.18,SSE,158,0.0,0.0,40,0.00,,---,0.00,VWS V14.01,2013-02-26 15:51:00,
2013-02-26 08:56:00,29.5,8.1,30.18,ESE,116,0.0,0.0,40,0.00,,---,0.00,VWS V14.01,2013-02-26 15:56:00,
2013-02-26 09:01:00,29.7,8.9,30.18,ESE,113,0.0,0.0,41,0.00,,---,0.00,VWS V14.01,2013-02-26 16:01:00,
2013-02-26 09:06:00,31.8,10.8,30.18,SSE,168,2.2,3.1,41,0.00,,---,0.00,VWS V14.01,2013-02-26 16:06:00,
2013-02-26 09:11:00,34.0,12.2,30.18,South,176,0.0,3.1,40,0.00,,---,0.00,VWS V14.01,2013-02-26 16:11:00,
2013-02-26 09:16:00,34.2,11.8,30.18,SSE,149,3.1,5.8,39,0.00,,---,0.00,VWS V14.01,2013-02-26 16:16:00,
2013-02-26 09:21:00,33.4,11.2,30.18,South,180,3.1,5.8,39,0.00,,---,0.00,VWS V14.01,2013-02-26 16:21:00,
2013-02-26 09:26:00,33.3,11.0,30.18,SSE,150,3.6,5.8,39,0.00,,---,0.00,VWS V14.01,2013-02-26 16:26:00,
2013-02-26 09:31:00,33.1,10.8,30.18,ESE,116,0.0,0.0,39,0.00,,---,0.00,VWS V14.01,2013-02-26 16:31:00,
2013-02-26 09:36:00,33.3,11.0,30.18,East,94,0.0,3.6,39,0.00,,---,0.00,VWS V14.01,2013-02-26 16:36:00,
2013-02-26 09:41:00,33.6,11.3,30.18,East,81,0.0,3.6,39,0.00,,---,0.00,VWS V14.01,2013-02-26 16:41:00,
2013-02-26 09:46:00,33.6,11.3,30.18,ESE,120,2.7,3.1,39,0.00,,---,0.00,VWS V14.01,2013-02-26 16:46:00,
2013-02-26 09:51:00,33.8,11.5,30.18,ESE,120,3.1,4.0,39,0.00,,---,0.00,VWS V14.01,2013-02-26 16:51:00,
2013-02-26 09:56:00,33.8,10.9,30.21,East,79,3.1,4.9,38,0.00,,---,0.00,VWS V14.01,2013-02-26 16:56:00,
2013-02-26 10:01:00,34.0,11.1,30.21,ESE,112,3.1,3.6,38,0.00,,---,0.00,VWS V14.01,2013-02-26 17:01:00,
2013-02-26 10:06:00,34.2,11.2,30.21,East,91,3.6,5.4,38,0.00,,---,0.00,VWS V14.01,2013-02-26 17:06:00,
2013-02-26 10:11:00,34.7,11.1,30.21,ENE,72,2.7,5.4,37,0.00,,---,0.00,VWS V14.01,2013-02-26 17:11:00,
2013-02-26 10:16:00,35.1,10.8,30.21,East,101,3.6,4.0,36,0.00,,---,0.00,VWS V14.01,2013-02-26 17:16:00,
2013-02-26 10:21:00,35.1,10.8,30.21,ENE,72,2.2,4.9,36,0.00,,---,0.00,VWS V14.01,2013-02-26 17:21:00,
2013-02-26 10:26:00,35.1,10.2,30.21,ENE,67,2.7,5.8,35,0.00,,---,0.00,VWS V14.01,2013-02-26 17:26:00,
2013-02-26 10:31:00,35.2,10.3,30.21,ENE,72,4.9,4.9,35,0.00,,---,0.00,VWS V14.01,2013-02-26 17:31:00,
2013-02-26 10:36:00,35.1,10.2,30.21,East,101,4.0,5.4,35,0.00,,---,0.00,VWS V14.01,2013-02-26 17:36:00,
2013-02-26 10:41:00,34.9,10.0,30.21,ESE,107,3.6,5.8,35,0.00,,---,0.00,VWS V14.01,2013-02-26 17:41:00,
2013-02-26 10:46:00,34.9,10.0,30.21,East,83,3.1,3.6,35,0.00,,---,0.00,VWS V14.01,2013-02-26 17:46:00,
2013-02-26 10:51:00,35.2,9.7,30.21,ENE,62,2.7,5.4,34,0.00,,---,0.00,VWS V14.01,2013-02-26 17:51:00,
2013-02-26 10:56:00,35.6,9.4,30.21,NNE,23,3.1,5.8,33,0.00,,---,0.00,VWS V14.01,2013-02-26 17:56:00,
2013-02-26 11:01:00,36.1,10.5,30.21,ENE,65,0.0,2.7,34,0.00,,---,0.00,VWS V14.01,2013-02-26 18:01:00,
2013-02-26 11:06:00,37.2,10.8,30.21,NNE,13,3.6,4.0,33,0.00,,---,0.00,VWS V14.01,2013-02-26 18:06:00,
2013-02-26 11:11:00,37.6,9.7,30.21,East,82,3.6,4.9,31,0.00,,---,0.00,VWS V14.01,2013-02-26 18:11:00,
2013-02-26 11:16:00,37.9,10.7,30.21,East,97,2.2,4.0,32,0.00,,---,0.00,VWS V14.01,2013-02-26 18:16:00,
2013-02-26 11:21:00,38.3,10.3,30.21,ENE,65,0.0,4.0,31,0.00,,---,0.00,VWS V14.01,2013-02-26 18:21:00,
2013-02-26 11:26:00,39.2,11.1,30.21,ESE,114,3.6,4.0,31,0.00,,---,0.00,VWS V14.01,2013-02-26 18:26:00,
2013-02-26 11:31:00,39.2,10.4,30.21,NNE,31,2.2,3.6,30,0.00,,---,0.00,VWS V14.01,2013-02-26 18:31:00,
2013-02-26 11:36:00,39.7,10.9,30.21,SE,127,0.0,4.0,30,0.00,,---,0.00,VWS V14.01,2013-02-26 18:36:00,
2013-02-26 11:41:00,41.7,11.8,30.21,ESE,103,2.7,4.0,29,0.00,,---,0.00,VWS V14.01,2013-02-26 18:41:00,
2013-02-26 11:46:00,41.9,12.0,30.21,SSE,149,0.0,4.0,29,0.00,,---,0.00,VWS V14.01,2013-02-26 18:46:00,
2013-02-26 11:51:00,41.9,12.0,30.21,SSE,149,0.0,4.0,29,0.00,,---,0.00,VWS V14.01,2013-02-26 18:51:00,
2013-02-26 11:56:00,42.4,12.4,30.18,ESE,122,3.6,5.8,29,0.00,,---,0.00,VWS V14.01,2013-02-26 18:56:00,
2013-02-26 12:01:00,42.6,12.6,30.18,NNE,23,0.0,0.0,29,0.00,,---,0.00,VWS V14.01,2013-02-26 19:01:00,
2013-02-26 12:06:00,42.4,11.7,30.18,East,100,0.0,6.3,28,0.00,,---,0.00,VWS V14.01,2013-02-26 19:06:00,
2013-02-26 12:11:00,42.3,11.5,30.21,ENE,60,0.0,6.3,28,0.00,,---,0.00,VWS V14.01,2013-02-26 19:11:00,
2013-02-26 12:16:00,42.3,11.5,30.21,SSE,150,3.1,4.0,28,0.00,,---,0.00,VWS V14.01,2013-02-26 19:16:00,
2013-02-26 12:21:00,42.8,12.0,30.21,ENE,69,0.0,4.9,28,0.00,,---,0.00,VWS V14.01,2013-02-26 19:21:00,
2013-02-26 12:26:00,41.7,11.0,30.21,North,2,0.0,4.9,28,0.00,,---,0.00,VWS V14.01,2013-02-26 19:26:00,
2013-02-26 12:31:00,40.6,10.1,30.21,NW,322,3.6,5.4,28,0.00,,---,0.00,VWS V14.01,2013-02-26 19:31:00,
2013-02-26 12:36:00,40.5,9.9,30.21,NW,307,2.2,5.8,28,0.00,,---,0.00,VWS V14.01,2013-02-26 19:36:00,
2013-02-26 12:41:00,40.8,10.2,30.21,WNW,300,5.4,5.8,28,0.00,,---,0.00,VWS V14.01,2013-02-26 19:41:00,
2013-02-26 12:46:00,40.6,10.1,30.21,WNW,282,5.4,6.3,28,0.00,,---,0.00,VWS V14.01,2013-02-26 19:46:00,
2013-02-26 12:51:00,39.9,9.5,30.21,West,259,4.9,6.3,28,0.00,,---,0.00,VWS V14.01,2013-02-26 19:51:00,
2013-02-26 12:56:00,39.6,9.2,30.21,NW,314,5.4,6.3,28,0.00,,---,0.00,VWS V14.01,2013-02-26 19:56:00,
2013-02-26 13:01:00,38.8,9.3,30.21,NW,307,3.6,5.4,29,0.00,,---,0.00,VWS V14.01,2013-02-26 20:01:00,
2013-02-26 13:06:00,38.8,9.3,30.21,WNW,302,2.2,5.4,29,0.00,,---,0.00,VWS V14.01,2013-02-26 20:06:00,
2013-02-26 13:11:00,40.5,10.7,30.21,SW,225,4.0,6.3,29,0.00,,---,0.00,VWS V14.01,2013-02-26 20:11:00,
2013-02-26 13:16:00,41.2,10.6,30.21,NW,321,3.6,4.9,28,0.00,,---,0.00,VWS V14.01,2013-02-26 20:16:00,
2013-02-26 13:21:00,40.6,10.9,30.21,NW,324,3.1,4.9,29,0.00,,---,0.00,VWS V14.01,2013-02-26 20:21:00,
2013-02-26 13:26:00,39.9,10.2,30.21,WNW,303,2.7,4.9,29,0.00,,---,0.00,VWS V14.01,2013-02-26 20:26:00,
2013-02-26 13:31:00,40.5,9.9,30.21,NW,318,4.0,7.6,28,0.00,,---,0.00,VWS V14.01,2013-02-26 20:31:00,
2013-02-26 13:36:00,40.1,9.6,30.21,NW,324,5.4,7.6,28,0.00,,---,0.00,VWS V14.01,2013-02-26 20:36:00,
2013-02-26 13:41:00,39.9,9.5,30.21,NNW,329,5.8,7.6,28,0.00,,---,0.00,VWS V14.01,2013-02-26 20:41:00,
2013-02-26 13:46:00,39.9,9.5,30.21,NW,306,5.8,5.8,28,0.00,,---,0.00,VWS V14.01,2013-02-26 20:46:00,
2013-02-26 13:51:00,40.3,9.8,30.21,NW,306,5.8,6.3,28,0.00,,---,0.00,VWS V14.01,2013-02-26 20:51:00,
2013-02-26 13:56:00,42.3,11.5,30.21,NW,306,4.0,7.2,28,0.00,,---,0.00,VWS V14.01,2013-02-26 20:56:00,
2013-02-26 14:01:00,41.7,11.0,30.21,NW,313,4.0,5.4,28,0.00,,---,0.00,VWS V14.01,2013-02-26 21:01:00,
2013-02-26 14:06:00,41.5,10.9,30.21,NW,308,3.1,5.4,28,0.00,,---,0.00,VWS V14.01,2013-02-26 21:06:00,
2013-02-26 14:11:00,41.7,11.0,30.21,SW,222,5.4,6.3,28,0.00,,---,0.00,VWS V14.01,2013-02-26 21:11:00,
2013-02-26 14:16:00,41.4,10.7,30.21,West,262,0.0,6.3,28,0.00,,---,0.00,VWS V14.01,2013-02-26 21:16:00,
2013-02-26 14:21:00,41.5,10.9,30.21,NNW,339,2.7,6.3,28,0.00,,---,0.00,VWS V14.01,2013-02-26 21:21:00,
2013-02-26 14:27:00,41.5,10.9,30.21,North,357,3.6,6.3,28,0.00,,---,0.00,VWS V14.01,2013-02-26 21:27:00,
2013-02-26 14:32:00,41.0,10.4,30.21,NW,311,3.6,6.3,28,0.00,,---,0.00,VWS V14.01,2013-02-26 21:32:00,
2013-02-26 14:37:00,40.3,9.8,30.21,NW,317,2.7,6.3,28,0.00,,---,0.00,VWS V14.01,2013-02-26 21:37:00,
2013-02-26 14:42:00,39.7,9.3,30.21,NW,313,0.0,6.3,28,0.00,,---,0.00,VWS V14.01,2013-02-26 21:42:00,
2013-02-26 14:47:00,39.4,9.0,30.21,West,266,0.0,4.9,28,0.00,,---,0.00,VWS V14.01,2013-02-26 21:47:00,
2013-02-26 14:51:00,39.2,8.9,30.21,West,273,5.8,7.6,28,0.00,,---,0.00,VWS V14.01,2013-02-26 21:51:00,
2013-02-26 14:56:00,39.0,9.5,30.21,NW,314,2.2,7.6,29,0.00,,---,0.00,VWS V14.01,2013-02-26 21:56:00,
2013-02-26 15:01:00,39.0,9.5,30.21,NW,305,3.1,5.8,29,0.00,,---,0.00,VWS V14.01,2013-02-26 22:01:00,
2013-02-26 15:06:00,39.0,9.5,30.21,NW,310,3.6,7.6,29,0.00,,---,0.00,VWS V14.01,2013-02-26 22:06:00,
2013-02-26 15:11:00,40.6,10.1,30.21,WNW,302,3.1,7.6,28,0.00,,---,0.00,VWS V14.01,2013-02-26 22:11:00,
2013-02-26 15:16:00,43.9,12.9,30.21,WNW,302,3.1,4.5,28,0.00,,---,0.00,VWS V14.01,2013-02-26 22:16:00,
2013-02-26 15:21:00,45.5,11.7,30.21,NW,311,4.0,5.4,25,0.00,,---,0.00,VWS V14.01,2013-02-26 22:21:00,
2013-02-26 15:26:00,43.7,10.2,30.21,NNW,328,2.7,6.3,25,0.00,,---,0.00,VWS V14.01,2013-02-26 22:26:00,
2013-02-26 15:31:00,41.5,9.2,30.21,NW,306,0.0,4.0,26,0.00,,---,0.00,VWS V14.01,2013-02-26 22:31:00,
2013-02-26 15:36:00,40.3,8.1,30.21,NW,318,2.7,5.8,26,0.00,,---,0.00,VWS V14.01,2013-02-26 22:36:00,
2013-02-26 15:41:00,39.7,7.7,30.21,NW,313,3.6,5.8,26,0.00,,---,0.00,VWS V14.01,2013-02-26 22:41:00,
2013-02-26 15:46:00,39.0,7.1,30.21,WNW,303,0.0,3.6,26,0.00,,---,0.00,VWS V14.01,2013-02-26 22:46:00,
2013-02-26 15:51:00,39.0,7.1,30.21,WNW,298,2.7,4.0,26,0.00,,---,0.00,VWS V14.01,2013-02-26 22:51:00,
2013-02-26 15:56:00,39.4,7.4,30.21,NNW,335,3.1,5.4,26,0.00,,---,0.00,VWS V14.01,2013-02-26 22:56:00,
2013-02-26 16:01:00,39.6,7.5,30.21,NW,304,4.0,5.8,26,0.00,,---,0.00,VWS V14.01,2013-02-26 23:01:00,
2013-02-26 16:06:00,39.2,7.2,30.21,SW,227,4.0,6.3,26,0.00,,---,0.00,VWS V14.01,2013-02-26 23:06:00,
2013-02-26 16:11:00,39.0,9.5,30.21,West,277,4.0,6.3,29,0.00,,---,0.00,VWS V14.01,2013-02-26 23:11:00,
2013-02-26 16:16:00,39.0,9.5,30.21,WSW,249,3.1,4.0,29,0.00,,---,0.00,VWS V14.01,2013-02-26 23:16:00,
2013-02-26 16:21:00,38.7,6.7,30.21,WNW,299,4.0,6.3,26,0.00,,---,0.00,VWS V14.01,2013-02-26 23:21:00,
2013-02-26 16:26:00,38.5,9.0,30.21,WNW,289,0.0,6.3,29,0.00,,---,0.00,VWS V14.01,2013-02-26 23:26:00,
2013-02-26 16:31:00,38.3,8.8,30.21,WNW,284,6.3,6.3,29,0.00,,---,0.00,VWS V14.01,2013-02-26 23:31:00,
2013-02-26 16:36:00,38.3,8.8,30.21,West,265,2.7,6.3,29,0.00,,---,0.00,VWS V14.01,2013-02-26 23:36:00,
2013-02-26 16:41:00,38.5,6.6,30.21,SW,229,6.7,7.6,26,0.00,,---,0.00,VWS V14.01,2013-02-26 23:41:00,
2013-02-26 16:46:00,38.1,6.3,30.21,WSW,256,5.8,6.3,26,0.00,,---,0.00,VWS V14.01,2013-02-26 23:46:00,
2013-02-26 16:51:00,37.6,5.8,30.21,WSW,248,0.0,8.1,26,0.00,,---,0.00,VWS V14.01,2013-02-26 23:51:00,
2013-02-26 16:56:00,37.4,5.7,30.21,WNW,292,3.6,8.1,26,0.00,,---,0.00,VWS V14.01,2013-02-26 23:56:00,
2013-02-26 17:01:00,36.9,6.0,30.21,NW,310,2.7,7.2,27,0.00,,---,0.00,VWS V14.01,2013-02-27 00:01:00,
2013-02-26 17:06:00,36.3,5.6,30.21,SSW,210,0.0,7.2,27,0.00,,---,0.00,VWS V14.01,2013-02-27 00:06:00,
2013-02-26 17:11:00,36.1,5.4,30.21,NW,321,2.7,7.2,27,0.00,,---,0.00,VWS V14.01,2013-02-27 00:11:00,
2013-02-26 17:16:00,35.8,5.1,30.21,SW,224,2.2,3.1,27,0.00,,---,0.00,VWS V14.01,2013-02-27 00:16:00,
2013-02-26 17:21:00,35.4,4.8,30.21,WSW,251,3.1,6.3,27,0.00,,---,0.00,VWS V14.01,2013-02-27 00:21:00,
2013-02-26 17:26:00,35.1,4.5,30.21,WSW,242,3.1,8.3,27,0.00,,---,0.00,VWS V14.01,2013-02-27 00:26:00,
2013-02-26 17:31:00,34.7,4.2,30.21,WSW,237,5.4,6.3,27,0.00,,---,0.00,VWS V14.01,2013-02-27 00:31:00,
2013-02-26 17:36:00,34.5,4.0,30.21,WSW,237,3.6,6.3,27,0.00,,---,0.00,VWS V14.01,2013-02-27 00:36:00,
2013-02-26 17:41:00,34.3,3.8,30.21,West,266,3.6,6.3,27,0.00,,---,0.00,VWS V14.01,2013-02-27 00:41:00,
2013-02-26 17:46:00,33.8,3.4,30.21,SW,231,0.0,0.0,27,0.00,,---,0.00,VWS V14.01,2013-02-27 00:46:00,
2013-02-26 17:51:00,33.4,3.8,30.21,SSW,209,3.1,4.9,28,0.00,,---,0.00,VWS V14.01,2013-02-27 00:51:00,
2013-02-26 17:56:00,33.3,5.2,30.21,South,187,0.0,4.9,30,0.00,,---,0.00,VWS V14.01,2013-02-27 00:56:00,
2013-02-26 18:01:00,33.3,5.2,30.21,South,188,2.7,5.8,30,0.00,,---,0.00,VWS V14.01,2013-02-27 01:01:00,
2013-02-26 18:06:00,33.1,5.0,30.21,SW,221,3.1,5.8,30,0.00,,---,0.00,VWS V14.01,2013-02-27 01:06:00,
2013-02-26 18:11:00,33.1,5.0,30.21,SW,222,2.7,5.8,30,0.00,,---,0.00,VWS V14.01,2013-02-27 01:11:00,
2013-02-26 18:16:00,32.7,4.7,30.21,WSW,237,0.0,0.0,30,0.00,,---,0.00,VWS V14.01,2013-02-27 01:16:00,
2013-02-26 18:21:00,32.2,4.2,30.21,WSW,248,0.0,0.0,30,0.00,,---,0.00,VWS V14.01,2013-02-27 01:21:00,
2013-02-26 18:26:00,31.8,3.9,30.24,WSW,248,0.0,0.0,30,0.00,,---,0.00,VWS V14.01,2013-02-27 01:26:00,
2013-02-26 18:31:00,31.8,3.9,30.24,WNW,283,0.0,4.0,30,0.00,,---,0.00,VWS V14.01,2013-02-27 01:31:00,
2013-02-26 18:36:00,32.0,4.1,30.24,WSW,247,0.0,7.6,30,0.00,,---,0.00,VWS V14.01,2013-02-27 01:36:00,
2013-02-26 18:41:00,31.6,3.8,30.24,West,261,2.2,7.6,30,0.00,,---,0.00,VWS V14.01,2013-02-27 01:41:00,
2013-02-26 18:46:00,31.5,3.6,30.24,WSW,258,0.0,3.6,30,0.00,,---,0.00,VWS V14.01,2013-02-27 01:46:00,
2013-02-26 18:51:00,31.1,3.3,30.24,WNW,303,0.0,3.6,30,0.00,,---,0.00,VWS V14.01,2013-02-27 01:51:00,
2013-02-26 18:56:00,30.6,2.8,30.24,SW,233,0.0,3.6,30,0.00,,---,0.00,VWS V14.01,2013-02-27 01:56:00,
2013-02-26 19:01:00,30.2,3.2,30.24,SW,233,0.0,0.0,31,0.00,,---,0.00,VWS V14.01,2013-02-27 02:01:00,
2013-02-26 19:06:00,29.5,2.6,30.24,SW,233,0.0,0.0,31,0.00,,---,0.00,VWS V14.01,2013-02-27 02:06:00,
2013-02-26 19:12:00,28.6,1.8,30.24,SW,233,0.0,0.0,31,0.00,,---,0.00,VWS V14.01,2013-02-27 02:12:00,
2013-02-26 19:17:00,28.4,2.3,30.24,SW,233,0.0,0.0,32,0.00,,---,0.00,VWS V14.01,2013-02-27 02:17:00,
2013-02-26 19:22:00,28.6,2.5,30.24,NE,56,0.0,2.2,32,0.00,,---,0.00,VWS V14.01,2013-02-27 02:22:00,
2013-02-26 19:27:00,28.6,2.5,30.24,SSW,208,3.1,4.0,32,0.00,,---,0.00,VWS V14.01,2013-02-27 02:27:00,
2013-02-26 19:32:00,29.1,2.3,30.24,WSW,237,0.0,0.0,31,0.00,,---,0.00,VWS V14.01,2013-02-27 02:32:00,
2013-02-26 19:37:00,29.1,2.3,30.24,SSE,154,0.0,0.0,31,0.00,,---,0.00,VWS V14.01,2013-02-27 02:37:00,
2013-02-26 19:42:00,28.6,1.8,30.24,SSE,154,0.0,0.0,31,0.00,,---,0.00,VWS V14.01,2013-02-27 02:42:00,
2013-02-26 19:47:00,28.2,2.2,30.24,WNW,296,0.0,3.6,32,0.00,,---,0.00,VWS V14.01,2013-02-27 02:47:00,
2013-02-26 19:52:00,27.9,1.8,30.24,WNW,296,0.0,3.6,32,0.00,,---,0.00,VWS V14.01,2013-02-27 02:52:00,
2013-02-26 19:57:00,27.0,1.0,30.24,WNW,283,0.0,3.6,32,0.00,,---,0.00,VWS V14.01,2013-02-27 02:57:00,
2013-02-26 20:02:00,26.2,0.4,30.24,WNW,282,0.0,0.0,32,0.00,,---,0.00,VWS V14.01,2013-02-27 03:02:00,
2013-02-26 20:07:00,25.9,0.8,30.24,West,281,0.0,0.0,33,0.00,,---,0.00,VWS V14.01,2013-02-27 03:07:00,
2013-02-26 20:12:00,25.7,0.6,30.24,West,281,0.0,0.0,33,0.00,,---,0.00,VWS V14.01,2013-02-27 03:12:00,
2013-02-26 20:17:00,25.3,0.3,30.24,WNW,282,0.0,0.0,33,0.00,,---,0.00,VWS V14.01,2013-02-27 03:17:00,
2013-02-26 20:22:00,25.0,0.6,30.24,SSW,206,0.0,0.0,34,0.00,,---,0.00,VWS V14.01,2013-02-27 03:22:00,
2013-02-26 20:27:00,24.6,0.3,30.24,SW,220,0.0,0.0,34,0.00,,---,0.00,VWS V14.01,2013-02-27 03:27:00,
2013-02-26 20:32:00,24.3,-0.1,30.24,SW,223,0.0,0.0,34,0.00,,---,0.00,VWS V14.01,2013-02-27 03:32:00,
2013-02-26 20:37:00,24.1,0.4,30.24,SW,233,0.0,0.0,35,0.00,,---,0.00,VWS V14.01,2013-02-27 03:37:00,
2013-02-26 20:42:00,23.5,-0.1,30.24,SW,234,0.0,0.0,35,0.00,,---,0.00,VWS V14.01,2013-02-27 03:42:00,
2013-02-26 20:47:00,23.2,-0.4,30.24,SE,143,0.0,0.0,35,0.00,,---,0.00,VWS V14.01,2013-02-27 03:47:00,
2013-02-26 20:52:00,23.0,0.0,30.24,SE,143,0.0,0.0,36,0.00,,---,0.00,VWS V14.01,2013-02-27 03:52:00,
2013-02-26 20:57:00,22.8,-0.1,30.24,SE,146,0.0,0.0,36,0.00,,---,0.00,VWS V14.01,2013-02-27 03:57:00,
2013-02-26 21:02:00,22.8,0.5,30.24,SSW,206,2.7,3.6,37,0.00,,---,0.00,VWS V14.01,2013-02-27 04:02:00,
2013-02-26 21:07:00,23.4,1.5,30.24,WSW,240,2.7,3.6,38,0.00,,---,0.00,VWS V14.01,2013-02-27 04:07:00,
2013-02-26 21:12:00,23.4,1.5,30.24,WSW,248,0.0,3.6,38,0.00,,---,0.00,VWS V14.01,2013-02-27 04:12:00,
2013-02-26 21:17:00,22.8,1.0,30.24,WSW,248,0.0,0.0,38,0.00,,---,0.00,VWS V14.01,2013-02-27 04:17:00,
2013-02-26 21:22:00,22.6,1.4,30.24,WSW,243,0.0,0.0,39,0.00,,---,0.00,VWS V14.01,2013-02-27 04:22:00,
2013-02-26 21:27:00,22.3,1.6,30.24,WSW,244,0.0,0.0,40,0.00,,---,0.00,VWS V14.01,2013-02-27 04:27:00,
2013-02-26 21:32:00,21.9,1.8,30.24,WSW,254,0.0,0.0,41,0.00,,---,0.00,VWS V14.01,2013-02-27 04:32:00,
2013-02-26 21:37:00,21.9,2.4,30.24,West,260,0.0,0.0,42,0.00,,---,0.00,VWS V14.01,2013-02-27 04:37:00,
2013-02-26 21:42:00,21.7,2.2,30.24,WSW,258,0.0,0.0,42,0.00,,---,0.00,VWS V14.01,2013-02-27 04:42:00,
2013-02-26 21:47:00,21.9,2.4,30.24,WSW,254,0.0,0.0,42,0.00,,---,0.00,VWS V14.01,2013-02-27 04:47:00,
2013-02-26 21:52:00,22.1,3.0,30.24,WSW,254,0.0,0.0,43,0.00,,---,0.00,VWS V14.01,2013-02-27 04:52:00,
2013-02-26 21:57:00,22.1,3.0,30.24,WSW,254,0.0,0.0,43,0.00,,---,0.00,VWS V14.01,2013-02-27 04:57:00,
2013-02-26 22:00:00,22.3,3.2,30.24,WSW,254,0.0,0.0,43,0.00,,---,0.00,VWS V14.01,2013-02-27 05:00:00,
2013-02-26 22:05:00,22.5,3.4,30.24,WSW,253,0.0,0.0,43,0.00,,---,0.00,VWS V14.01,2013-02-27 05:05:00,
2013-02-26 22:10:00,22.5,3.4,30.24,WSW,254,0.0,0.0,43,0.00,,---,0.00,VWS V14.01,2013-02-27 05:10:00,
2013-02-26 22:15:00,22.6,3.5,30.24,WSW,253,0.0,0.0,43,0.00,,---,0.00,VWS V14.01,2013-02-27 05:15:00,
2013-02-26 22:20:00,22.8,3.7,30.24,SSW,209,0.0,0.0,43,0.00,,---,0.00,VWS V14.01,2013-02-27 05:20:00,
2013-02-26 22:25:00,22.8,3.7,30.24,SSW,207,0.0,0.0,43,0.00,,---,0.00,VWS V14.01,2013-02-27 05:25:00,
2013-02-26 22:30:00,22.3,3.2,30.24,SE,140,2.7,3.6,43,0.00,,---,0.00,VWS V14.01,2013-02-27 05:30:00,
2013-02-26 22:35:00,22.6,3.5,30.24,South,180,0.0,3.6,43,0.00,,---,0.00,VWS V14.01,2013-02-27 05:35:00,
2013-02-26 22:40:00,22.5,3.4,30.24,SSW,202,0.0,3.6,43,0.00,,---,0.00,VWS V14.01,2013-02-27 05:40:00,
2013-02-26 22:45:00,21.9,2.9,30.24,ESE,120,0.0,0.0,43,0.00,,---,0.00,VWS V14.01,2013-02-27 05:45:00,
2013-02-26 22:50:00,21.9,2.9,30.24,ESE,120,0.0,0.0,43,0.00,,---,0.00,VWS V14.01,2013-02-27 05:50:00,
2013-02-26 22:55:00,21.6,2.5,30.24,West,259,0.0,0.0,43,0.00,,---,0.00,VWS V14.01,2013-02-27 05:55:00,
2013-02-26 23:00:00,21.2,2.7,30.24,West,259,0.0,0.0,44,0.00,,---,0.00,VWS V14.01,2013-02-27 06:00:00,
2013-02-26 23:05:00,21.0,2.5,30.24,West,259,0.0,0.0,44,0.00,,---,0.00,VWS V14.01,2013-02-27 06:05:00,
2013-02-26 23:10:00,21.0,2.5,30.24,West,259,0.0,0.0,44,0.00,,---,0.00,VWS V14.01,2013-02-27 06:10:00,
2013-02-26 23:15:00,21.0,2.5,30.24,West,259,0.0,0.0,44,0.00,,---,0.00,VWS V14.01,2013-02-27 06:15:00,
2013-02-26 23:20:00,20.7,2.2,30.24,West,259,0.0,0.0,44,0.00,,---,0.00,VWS V14.01,2013-02-27 06:20:00,
2013-02-26 23:25:00,20.7,2.2,30.24,SW,222,0.0,3.6,44,0.00,,---,0.00,VWS V14.01,2013-02-27 06:25:00,
2013-02-26 23:30:00,21.0,2.5,30.24,WSW,245,0.0,0.0,44,0.00,,---,0.00,VWS V14.01,2013-02-27 06:30:00,
2013-02-26 23:35:00,21.0,2.5,30.24,WNW,288,0.0,3.1,44,0.00,,---,0.00,VWS V14.01,2013-02-27 06:35:00,
2013-02-26 23:40:00,20.8,2.9,30.24,South,187,0.0,3.6,45,0.00,,---,0.00,VWS V14.01,2013-02-27 06:40:00,
2013-02-26 23:45:00,21.4,3.3,30.24,South,170,0.0,0.0,45,0.00,,---,0.00,VWS V14.01,2013-02-27 06:45:00,
2013-02-26 23:50:00,22.3,4.7,30.24,SSW,199,5.4,6.3,46,0.00,,---,0.00,VWS V14.01,2013-02-27 06:50:00,
2013-02-26 23:55:00,22.8,5.2,30.24,South,169,2.7,6.3,46,0.00,,---,0.00,VWS V14.01,2013-02-27 06:55:00,